Precipitable_Water
0.37 0.39 0.39 0.39 0.39 0.40 0.38 0.42 0.46 0.45 0.43 0.44 0.44 0.42 0.43 0.47 0.62 0.71 0.80 0.78 0.70 0.68 0.69 0.68 0.61 0.63 0.60 0.62 0.63 0.63 0.64 0.70 0.62 0.75 0.87 0.87 0.90 0.92 0.93 0.95 1.01 0.98 0.97
0.30 0.32 0.33 0.35 0.34 0.34 0.34 0.35 0.37 0.36 0.37 0.36 0.33 0.33 0.36 0.41 0.46 0.57 0.59 0.63 0.63 0.63 0.62 0.57 0.53 0.56 0.55 0.57 0.59 0.57 0.62 0.66 0.67 0.62 0.74 0.79 0.79 0.81 0.90 0.90 0.96 0.95 0.93
0.28 0.29 0.31 0.30 0.29 0.29 0.30 0.31 0.32 0.33 0.33 0.32 0.32 0.33 0.34 0.36 0.36 0.46 0.60 0.65 0.60 0.62 0.59 0.55 0.52 0.52 0.48 0.52 0.56 0.55 0.56 0.63 0.68 0.65 0.66 0.76 0.77 0.78 0.75 0.83 0.86 0.87 0.89
0.31 0.30 0.29 0.28 0.29 0.30 0.32 0.33 0.33 0.33 0.32 0.31 0.31 0.34 0.38 0.35 0.39 0.43 0.51 0.58 0.56 0.59 0.59 0.56 0.53 0.51 0.50 0.52 0.54 0.53 0.55 0.59 0.63 0.65 0.67 0.68 0.71 0.72 0.73 0.69 0.70 0.77 0.78
0.32 0.33 0.34 0.36 0.36 0.36 0.35 0.35 0.34 0.34 0.33 0.35 0.36 0.34 0.34 0.41 0.46 0.51 0.53 0.50 0.51 0.55 0.57 0.55 0.54 0.53 0.55 0.52 0.52 0.53 0.55 0.58 0.61 0.63 0.65 0.64 0.63 0.63 0.60 0.67 0.66 0.69 0.71
0.34 0.34 0.35 0.37 0.39 0.41 0.42 0.43 0.43 0.42 0.43 0.42 0.39 0.44 0.46 0.53 0.54 0.52 0.48 0.45 0.46 0.49 0.49 0.48 0.52 0.50 0.52 0.51 0.51 0.56 0.60 0.63 0.61 0.61 0.62 0.60 0.60 0.63 0.64 0.65 0.63 0.59 0.55
0.37 0.37 0.38 0.39 0.40 0.41 0.42 0.43 0.45 0.46 0.48 0.50 0.54 0.53 0.49 0.49 0.51 0.51 0.50 0.45 0.45 0.42 0.41 0.42 0.45 0.47 0.50 0.48 0.51 0.54 0.61 0.67 0.67 0.65 0.60 0.60 0.60 0.63 0.63 0.62 0.61 0.62 0.59
0.34 0.36 0.38 0.39 0.39 0.39 0.39 0.41 0.43 0.47 0.49 0.51 0.54 0.55 0.52 0.50 0.49 0.44 0.41 0.42 0.43 0.41 0.43 0.43 0.46 0.44 0.47 0.48 0.49 0.54 0.59 0.63 0.65 0.65 0.65 0.65 0.65 0.66 0.66 0.65 0.62 0.60 0.60
0.35 0.36 0.38 0.38 0.37 0.39 0.39 0.40 0.44 0.44 0.45 0.48 0.50 0.50 0.54 0.53 0.50 0.46 0.44 0.42 0.39 0.38 0.41 0.44 0.47 0.43 0.46 0.49 0.48 0.49 0.55 0.59 0.63 0.63 0.64 0.64 0.65 0.65 0.64 0.60 0.54 0.52 0.49
0.36 0.37 0.38 0.39 0.40 0.39 0.42 0.44 0.45 0.46 0.47 0.50 0.51 0.50 0.48 0.47 0.50 0.48 0.44 0.41 0.38 0.38 0.40 0.45 0.46 0.43 0.45 0.48 0.50 0.49 0.54 0.55 0.56 0.56 0.57 0.58 0.59 0.59 0.60 0.59 0.56 0.50 0.48
0.39 0.40 0.39 0.40 0.39 0.42 0.44 0.45 0.47 0.46 0.45 0.45 0.45 0.47 0.48 0.48 0.47 0.47 0.47 0.47 0.43 0.40 0.38 0.42 0.44 0.43 0.44 0.46 0.52 0.51 0.56 0.57 0.55 0.54 0.53 0.54 0.54 0.55 0.55 0.56 0.56 0.54 0.49
0.39 0.38 0.39 0.40 0.42 0.42 0.42 0.45 0.45 0.44 0.42 0.41 0.41 0.41 0.42 0.43 0.44 0.46 0.48 0.50 0.50 0.46 0.41 0.43 0.43 0.43 0.43 0.47 0.50 0.53 0.57 0.55 0.53 0.51 0.50 0.49 0.49 0.50 0.52 0.54 0.55 0.55 0.56
0.37 0.37 0.39 0.40 0.41 0.42 0.42 0.42 0.42 0.44 0.42 0.41 0.40 0.38 0.38 0.41 0.44 0.46 0.47 0.50 0.50 0.48 0.46 0.44 0.43 0.43 0.43 0.45 0.49 0.52 0.55 0.53 0.50 0.48 0.47 0.47 0.48 0.50 0.51 0.51 0.52 0.53 0.52
0.36 0.37 0.39 0.39 0.39 0.41 0.43 0.44 0.43 0.43 0.41 0.39 0.38 0.37 0.39 0.43 0.46 0.48 0.47 0.49 0.50 0.49 0.46 0.43 0.42 0.42 0.43 0.44 0.49 0.52 0.52 0.51 0.49 0.47 0.46 0.48 0.49 0.48 0.47 0.49 0.47 0.47 0.45
0.37 0.37 0.38 0.39 0.39 0.40 0.42 0.43 0.44 0.45 0.44 0.40 0.38 0.39 0.39 0.41 0.43 0.46 0.46 0.46 0.48 0.48 0.44 0.41 0.38 0.38 0.38 0.43 0.46 0.49 0.50 0.49 0.47 0.47 0.46 0.45 0.45 0.45 0.45 0.47 0.46 0.45 0.42
0.34 0.36 0.38 0.38 0.38 0.39 0.39 0.40 0.46 0.46 0.44 0.42 0.41 0.42 0.44 0.46 0.46 0.46 0.46 0.46 0.47 0.46 0.42 0.37 0.35 0.36 0.37 0.43 0.45 0.45 0.47 0.46 0.46 0.45 0.44 0.43 0.42 0.42 0.42 0.43 0.43 0.42 0.40
0.24 0.32 0.37 0.39 0.38 0.37 0.37 0.37 0.34 0.41 0.44 0.42 0.41 0.41 0.45 0.45 0.45 0.46 0.46 0.46 0.45 0.44 0.38 0.36 0.35 0.36 0.38 0.43 0.44 0.45 0.44 0.45 0.46 0.44 0.43 0.42 0.42 0.42 0.41 0.40 0.39 0.37 0.35
0.20 0.21 0.23 0.32 0.38 0.39 0.38 0.37 0.37 0.35 0.34 0.36 0.40 0.40 0.43 0.43 0.45 0.46 0.45 0.45 0.40 0.41 0.39 0.36 0.36 0.37 0.42 0.43 0.44 0.44 0.44 0.44 0.43 0.43 0.42 0.41 0.40 0.39 0.37 0.35 0.34 0.30 0.25
0.19 0.18 0.19 0.21 0.24 0.33 0.40 0.41 0.40 0.38 0.36 0.36 0.38 0.38 0.41 0.43 0.44 0.45 0.45 0.41 0.39 0.39 0.39 0.38 0.39 0.39 0.43 0.43 0.44 0.44 0.44 0.43 0.42 0.41 0.40 0.38 0.36 0.34 0.30 0.26 0.22 0.19 0.18
0.21 0.18 0.19 0.20 0.21 0.22 0.27 0.37 0.40 0.40 0.38 0.37 0.36 0.35 0.38 0.41 0.39 0.40 0.41 0.41 0.40 0.40 0.40 0.39 0.40 0.40 0.43 0.43 0.43 0.43 0.42 0.41 0.40 0.39 0.38 0.36 0.30 0.25 0.20 0.18 0.17 0.17 0.17
0.21 0.18 0.18 0.19 0.19 0.20 0.23 0.27 0.36 0.40 0.39 0.37 0.37 0.37 0.39 0.39 0.38 0.38 0.40 0.40 0.40 0.40 0.40 0.40 0.40 0.41 0.43 0.42 0.42 0.41 0.41 0.40 0.39 0.37 0.35 0.28 0.22 0.19 0.19 0.19 0.19 0.18 0.18
0.21 0.17 0.18 0.19 0.19 0.19 0.20 0.24 0.29 0.37 0.39 0.38 0.38 0.37 0.38 0.39 0.38 0.39 0.39 0.40 0.41 0.42 0.42 0.41 0.41 0.42 0.42 0.42 0.42 0.41 0.40 0.39 0.38 0.34 0.27 0.22 0.19 0.20 0.20 0.20 0.20 0.19 0.19
0.21 0.19 0.19 0.19 0.19 0.19 0.19 0.22 0.26 0.32 0.39 0.40 0.39 0.37 0.36 0.38 0.37 0.38 0.39 0.40 0.41 0.42 0.43 0.42 0.42 0.42 0.43 0.43 0.43 0.41 0.39 0.38 0.34 0.26 0.21 0.20 0.20 0.21 0.21 0.20 0.19 0.18 0.18
0.21 0.20 0.19 0.19 0.19 0.19 0.17 0.20 0.24 0.29 0.36 0.40 0.39 0.38 0.36 0.37 0.37 0.37 0.39 0.40 0.41 0.42 0.42 0.42 0.42 0.41 0.41 0.41 0.42 0.41 0.40 0.32 0.26 0.22 0.21 0.21 0.21 0.22 0.21 0.20 0.18 0.17 0.16
0.22 0.21 0.20 0.19 0.18 0.16 0.17 0.19 0.22 0.27 0.32 0.38 0.40 0.39 0.38 0.38 0.38 0.37 0.38 0.40 0.40 0.41 0.41 0.42 0.42 0.42 0.41 0.41 0.41 0.36 0.28 0.25 0.24 0.24 0.24 0.23 0.21 0.20 0.19 0.17 0.16 0.16 0.16
0.22 0.21 0.20 0.19 0.16 0.16 0.16 0.17 0.20 0.25 0.29 0.35 0.39 0.40 0.39 0.37 0.38 0.38 0.37 0.38 0.39 0.39 0.40 0.41 0.41 0.41 0.41 0.39 0.33 0.26 0.24 0.24 0.24 0.24 0.24 0.22 0.20 0.18 0.17 0.16 0.16 0.16 0.17
Wind_Speed
45 45 45 46 47 49 49 49 49 49 49 48 49 51 51 50 47 43 39 36 37 39 41 42 43 43 45 46 48 49 51 53 56 58 59 60 57 57 57 55 56 54 53
46 47 47 49 50 51 51 51 50 51 50 49 49 47 46 45 43 40 40 38 37 35 34 35 37 38 40 42 44 47 50 52 54 57 56 57 59 59 54 56 53 53 52
47 48 49 50 51 52 52 52 50 49 48 47 46 45 42 40 39 40 39 36 35 31 32 32 34 34 35 38 40 44 48 50 51 53 54 55 56 56 56 53 54 51 52
48 49 51 52 52 51 50 50 48 48 48 47 43 42 40 40 39 37 37 37 34 34 33 33 33 34 36 38 41 42 43 45 47 48 49 49 51 52 52 51 50 51 49
50 50 50 50 50 50 49 48 48 47 46 44 44 43 41 40 36 33 33 34 33 32 30 32 33 33 34 35 36 38 40 40 41 42 44 44 46 48 49 48 48 48 49
49 49 49 49 47 46 45 43 43 43 42 42 42 38 35 30 31 33 34 34 34 34 34 33 32 32 32 33 34 35 34 35 33 32 35 38 40 45 45 45 45 44 43
45 45 46 46 46 46 45 45 44 42 42 42 38 34 32 33 34 35 37 35 35 35 35 34 33 33 32 32 31 32 30 27 27 29 29 32 35 38 40 41 44 43 42
45 44 45 46 47 46 45 44 45 44 42 40 39 36 34 33 32 31 32 33 35 35 35 34 34 33 31 30 28 27 24 21 21 20 24 28 31 34 37 36 36 37 36
42 43 44 45 44 42 42 42 40 40 38 36 34 33 34 37 37 36 34 33 32 34 34 33 32 32 30 28 26 24 22 18 16 16 17 20 26 31 34 33 33 32 30
41 41 42 39 39 40 40 38 35 33 30 27 27 30 33 36 36 36 36 36 34 32 31 30 31 31 29 27 24 21 17 14 12 11 12 14 18 24 29 32 32 29 29
37 37 35 36 37 36 34 31 28 28 27 27 27 28 29 29 30 33 35 35 34 32 29 27 27 26 24 23 20 17 14 12 10 8 9 11 15 18 21 24 27 29 28
33 32 32 32 32 32 29 26 24 25 24 24 26 27 27 28 30 30 31 30 29 28 26 24 24 23 21 18 16 13 11 10 8 7 7 8 11 15 18 21 22 22 22
29 29 29 29 29 28 26 24 24 25 25 25 27 28 30 30 30 30 29 27 25 23 22 21 20 19 18 16 13 10 10 9 8 8 9 9 11 13 15 16 17 17 17
27 28 28 27 27 26 25 25 25 25 25 27 28 30 31 32 32 29 25 21 18 18 18 17 17 16 16 14 11 11 12 11 11 11 12 12 13 13 14 14 15 15 15
27 27 27 27 27 27 26 25 25 25 26 28 30 31 32 32 29 26 22 19 16 16 16 15 15 15 15 13 12 11 13 14 13 13 12 12 12 13 13 13 13 13 13
26 27 27 27 27 27 27 26 25 26 28 29 31 31 32 32 30 24 20 17 16 16 15 15 16 16 16 14 12 15 15 15 14 13 13 12 11 11 11 11 10 11 11
26 27 27 27 27 28 27 27 27 28 28 29 30 31 31 31 26 20 16 14 14 16 16 16 16 17 17 16 14 16 16 16 15 14 13 12 11 11 11 10 10 10 10
26 27 28 28 28 28 28 28 29 28 29 28 28 29 29 29 21 15 11 10 10 12 14 15 16 17 18 19 16 17 17 17 16 14 13 12 12 11 11 11 10 10 10
27 28 29 29 29 29 28 28 28 28 27 26 26 26 26 25 18 11 7 7 9 9 11 13 16 18 19 18 18 18 17 17 16 14 14 13 12 12 11 11 10 10 10
29 30 31 31 31 30 29 28 27 27 25 24 24 23 23 22 15 9 6 7 9 9 12 13 15 18 19 19 20 19 17 16 15 14 13 12 12 12 11 11 11 10 10
31 32 33 33 32 32 31 29 28 27 25 23 21 20 19 17 14 9 7 6 8 9 10 13 15 18 19 19 19 18 17 16 15 14 14 13 13 12 12 11 10 10 9
34 36 35 35 35 34 32 30 28 26 24 22 19 17 16 13 12 9 6 6 7 8 10 13 16 17 19 19 18 18 17 16 16 15 14 14 13 12 11 11 10 10 10
36 36 36 36 35 35 33 30 28 25 23 21 18 16 14 11 9 8 5 4 7 8 10 13 15 16 18 18 17 17 17 17 16 15 15 14 13 12 12 11 10 9 10
36 35 35 36 35 33 31 29 28 25 23 21 18 16 14 12 9 7 4 2 6 9 11 13 14 15 16 17 17 17 17 17 16 16 15 14 13 12 11 11 11 12 13
36 36 36 35 34 33 31 29 27 25 23 21 19 17 16 14 11 9 6 4 5 7 10 13 14 15 16 16 17 17 17 17 16 16 15 13 12 12 11 11 12 13 15
38 37 37 36 34 32 30 29 27 25 24 22 20 19 18 16 15 12 10 8 8 8 9 11 12 14 15 16 16 16 17 16 16 15 14 13 12 12 12 12 14 15 17
Wind_Direction
303 303 302 302 302 300 300 299 297 297 297 295 292 292 291 289 286 283 281 272 274 276 274 272 272 273 272 270 270 269 267 264 262 260 258 255 253 250 250 248 246 244 242
301 302 302 301 300 299 299 298 297 296 295 295 295 295 294 291 286 279 275 278 276 274 271 272 273 273 273 274 273 272 270 267 263 261 259 254 250 247 248 243 245 241 240
303 302 302 301 300 300 298 297 296 296 296 295 293 293 293 293 289 279 273 278 275 275 275 276 277 277 277 277 277 277 274 270 265 261 258 253 249 245 242 242 240 240 238
304 303 302 301 301 300 299 298 297 296 295 294 292 291 290 291 289 284 278 273 274 275 275 277 278 279 281 281 280 280 279 273 267 261 255 251 246 242 240 238 237 235 236
304 303 303 303 301 300 299 298 297 296 295 294 292 290 289 288 285 284 279 276 273 274 279 278 279 281 282 284 286 284 282 275 269 260 251 247 242 237 237 236 234 233 235
305 304 304 304 303 303 302 303 301 298 297 297 294 291 289 285 285 287 284 280 274 275 277 279 280 283 283 285 288 287 283 280 268 258 249 242 237 234 233 232 229 231 232
307 307 306 305 305 304 304 303 301 300 297 296 293 290 288 286 287 288 286 280 276 278 277 276 277 280 282 285 289 291 286 280 268 257 245 239 235 230 227 228 227 228 232
306 306 306 306 305 305 303 302 301 298 297 294 287 286 286 285 290 293 292 286 279 279 276 273 274 277 278 281 287 290 293 280 274 262 247 239 235 229 227 227 224 224 226
307 308 308 308 308 307 306 305 304 302 298 294 289 286 287 280 287 287 287 289 287 281 278 270 270 272 275 276 283 288 289 276 271 260 248 239 232 226 223 220 219 219 222
309 309 310 312 311 311 309 307 307 307 305 301 296 292 291 290 287 285 283 282 283 284 279 268 266 268 270 271 278 279 281 264 260 256 242 234 224 218 216 218 216 217 218
311 312 314 316 317 316 314 311 311 311 308 305 304 302 301 299 296 291 286 281 277 275 275 265 265 262 262 267 268 271 266 251 247 243 229 216 209 205 205 209 212 215 218
314 316 317 319 322 324 319 317 315 315 313 311 311 310 307 305 302 299 296 284 277 269 266 260 260 255 255 257 258 259 244 229 224 215 198 185 186 196 199 201 203 207 215
317 318 320 323 324 326 325 322 319 318 315 313 313 312 310 308 306 301 299 291 275 263 257 255 252 247 244 246 242 233 215 206 196 182 170 163 165 165 167 173 182 191 197
317 319 321 323 325 325 323 321 320 319 318 317 316 316 314 312 307 300 296 291 271 255 250 249 242 237 233 228 225 216 199 191 176 162 154 151 150 153 157 165 167 172 174
315 317 319 320 322 322 322 320 319 319 319 319 319 318 318 317 312 301 291 283 262 249 244 240 232 226 220 214 209 198 186 179 174 169 164 161 157 157 158 163 166 174 183
318 317 318 318 319 319 319 317 318 318 319 320 321 320 320 317 313 301 284 275 254 241 239 233 226 218 211 205 200 188 185 182 179 175 172 172 173 173 174 178 183 189 195
321 321 320 319 318 317 316 316 315 317 318 320 323 324 324 323 316 302 279 270 250 237 236 227 220 211 205 201 195 188 186 185 185 186 187 189 190 193 196 200 205 208 212
320 321 322 321 321 317 316 312 312 314 317 321 324 327 329 329 323 308 276 254 241 232 224 218 212 207 202 199 197 189 187 188 190 193 194 196 199 203 206 210 213 215 217
317 319 320 321 320 319 317 316 314 313 313 318 322 328 333 335 331 314 268 249 233 227 214 210 206 202 196 196 193 187 189 190 192 196 201 205 209 210 210 212 214 213 213
312 315 317 317 317 317 317 315 316 314 313 314 319 325 332 337 334 314 289 250 234 225 213 209 204 198 194 193 190 190 189 190 194 196 199 201 202 204 207 208 209 211 216
306 310 312 313 313 313 312 312 311 314 311 309 312 319 327 336 339 324 282 257 227 214 208 205 199 193 192 191 189 191 194 196 199 200 200 201 203 205 206 207 208 212 221
302 305 306 308 309 308 306 306 305 306 309 306 303 309 316 327 339 339 310 234 220 208 206 199 193 194 191 191 193 198 199 199 198 199 200 202 202 202 204 207 214 223 234
301 303 303 306 307 307 303 299 298 298 301 301 295 296 300 304 317 335 338 231 211 206 200 193 192 192 193 195 198 199 199 199 199 201 200 199 202 207 208 213 222 238 254
300 301 303 304 306 305 303 298 293 289 290 293 287 281 281 282 285 293 303 255 209 204 197 194 195 193 195 199 201 201 198 198 200 200 200 201 203 207 216 229 245 260 270
297 298 300 302 303 302 301 298 292 285 281 282 279 271 267 263 262 259 254 233 201 191 195 199 198 197 196 194 194 194 194 192 193 195 198 204 209 219 233 248 260 271 279
293 295 296 298 298 298 297 294 291 284 276 273 272 265 258 249 246 242 237 225 209 195 187 186 186 186 187 187 187 187 188 191 195 199 204 213 223 236 248 260 270 279 285